Regional Weather Roundup
Issued by NWS

Home | Current Version | Previous Version | Text Only | Print | Product List | Glossary On
Versions: 1 2 3 4 5 6 7 8 9 10 11 12 13 14 15 16 17 18 19 20 21 22 23 24 25 26 27 28 29 30 31 32 33 34 35 36 37 38 39 40 41 42 43 44 45 46 47 48 49 50
000
ASUS43 KDTX 142110
RWRMI
MICHIGAN HOURLY REGIONAL WEATHER ROUNDUP
NATIONAL WEATHER SERVICE DETROIT/PONTIAC MI
400 PM EST THU DEC 14 2017

NOTE: "FAIR" INDICATES FEW OR NO CLOUDS BELOW 12,000 FEET WITH NO
SIGNIFICANT WEATHER AND/OR OBSTRUCTION TO VISIBILITY.

MIZ047>049-052>055-059>063-066>070-074>076-081>083-142200-
SOUTHEAST LOWER MICHIGAN

CITY           SKY/WX    TMP DP  RH WIND       PRES   REMARKS
ADRIAN         CLOUDY    19   7  59 SW3       30.04R
ALMA           CLOUDY    18  10  70 S6        30.01F WCI   9
ANN ARBOR      CLEAR     20   8  60 NW8       30.01S WCI  10
BAD AXE        CLEAR     12   6  74 W5        30.00S WCI   5
CARO           CLEAR     16   6  66 CALM      30.00F
DETROIT CITY   CLEAR     21   5  50 N7        30.02S WCI  12
DETROIT        PTCLDY    23   7  50 NW7       30.02S WCI  15
FLINT          CLEAR     16   6  65 SW5       30.01F WCI   9
GROSSE ILE     CLEAR     20   5  52 W5        30.02R WCI  13
HILLSDALE      CLOUDY    19   9  63 CALM      30.00R
HOWELL         CLEAR     18   8  64 CALM      30.00S

CITY           SKY/WX    TMP DP  RH WIND       PRES   REMARKS
JACKSON        CLEAR     22   7  52 CALM      30.00S
LAMBERTVILLE   PTCLDY    19   6  56 CALM      30.04R
LANSING        MOCLDY    20   9  62 W6        30.01F WCI  12
LAPEER         FAIR      17   7  66 W7        30.00F WCI   7
MASON          CLEAR     18   5  56 CALM      30.01S
MONROE         CLEAR     16   5  61 W6        30.03R WCI   7
MT. CLEMENS    PTCLDY    19   2  48 NW6       30.00S WCI  11
PONTIAC        PTCLDY    19   8  62 NW7       29.98F WCI  10
PORT HOPE        N/A     16   9  74 SW9       29.98R WCI   4
PORT HURON     CLEAR     18   1  49 W5        30.01S WCI  11
TRI CITIES     CLEAR     16   9  74 SW6       30.02S WCI   7
MIDLAND        MOCLDY    18   9  68 SW6       30.00S WCI  10
TROY           CLEAR     21   8  55 NW7       30.02S WCI  13
SAGINAW HB     CLEAR     16   9  73 SW7       30.02S WCI   6
$$
MIZ043>046-050>051-056>058-064>065-071>073-077>080-142200-
SOUTHWEST LOWER MICHIGAN

CITY           SKY/WX    TMP DP  RH WIND       PRES   REMARKS
BATTLE CREEK   CLOUDY    20  12  71 SW7       30.01S WCI  11
BENTON HARBOR  PTSUNNY   23  12  62 S9        30.04R WCI  13
BIG RAPIDS     FLURRIES  22  15  76 W5        29.97F WCI  15
COLDWATER      CLOUDY    18   7  61 SW3       30.02R
HOLLAND        LGT SNOW  22  16  78 S7        30.02F WCI  13
GRAND RAPIDS   LGT SNOW  20  15  81 SW6       30.01S WCI  12
IONIA          FAIR      19  10  65 S3        30.00S
KALAMAZOO      CLOUDY    21  11  65 S5        30.02R WCI  15
LUDINGTON      CLOUDY    22  11  63 W6        30.01S WCI  14
MARSHALL       CLOUDY    20   8  60 SW3       30.02R
MOUNT PLEASANT CLOUDY    23  13  65 SW6       29.98F WCI  15
MUSKEGON       CLOUDY    22  16  78 SE5       30.02S WCI  16
SOUTH HAVEN    LGT SNOW  24  15  70 CALM      30.03S
$$
MIZ016>042-142200-
NORTHERN LOWER MICHIGAN

CITY           SKY/WX    TMP DP  RH WIND       PRES   REMARKS
ALPENA         CLOUDY    20  10  65 VRB3      29.96S
BEAVER ISLAND  CLOUDY    22  11  60 W6        29.94S WCI  15
BELLAIRE       LGT SNOW  23  20  88 SW5       29.96S WCI  17
CADILLAC       FLURRIES  20  13  76 SW8       29.93S WCI  10
CHARLEVOIX     CLOUDY    24  13  62 W13       29.96F WCI  12
FRANKFORT      CLOUDY    24  12  61 SW6       29.98S WCI  17
GAYLORD        FLURRIES  18  12  77 SW6       29.90R WCI  10
GRAYLING       LGT SNOW  20  15  79 W6        29.93S WCI  12
HARBOR SPRINGS LGT SNOW  22  16  76 NW6       29.93S WCI  15
HOUGHTON LAKE  CLOUDY    20  12  71 W6        29.94S WCI  12
MANISTEE       MOCLDY    21  12  68 W7        30.00S WCI  13
OSCODA         CLOUDY    20   9  63 NW5       29.97S WCI  13
PELLSTON       CLOUDY    22  12  65 W9        29.93F WCI  12
ROGERS CITY    CLOUDY    20  10  66 W3        29.95S
TRAVERSE CITY  FLURRIES  22  16  78 W9        29.96S WCI  12
$$
MIZ007>008-015-142200-
EASTERN UPPER MICHIGAN

CITY           SKY/WX    TMP DP  RH WIND       PRES   REMARKS
KINROSS        FLURRIES  16  10  77 E3        29.90S
MACKINAC ISLAN CLOUDY    23  10  58 W9G18     29.91S WCI  13
NEWBERRY       CLOUDY    19  15  86 W8        29.90S WCI   8
S. S. MARIE    LGT SNOW  11   6  81 E3        29.91F
MUNISING         N/A     23  10  57 NW8       29.93S WCI  14
$$
MIZ004>006-011>014-085-142200-
CENTRAL UPPER MICHIGAN

CITY           SKY/WX    TMP DP  RH WIND       PRES   REMARKS
MANISTIQUE     CLOUDY    21   2  43 W10       29.94S WCI  10
ESCANABA       FLURRIES  21  12  68 W5        29.96S WCI  15
SAWYER-GWINN   CLOUDY    18  10  73 W6        29.90S WCI   9
$$
MIZ001>003-009>011-084-142200-
WESTERN UPPER MICHIGAN

CITY           SKY/WX    TMP DP  RH WIND       PRES   REMARKS
IRON MOUNTAIN  MOCLDY    21   8  57 W7        29.91S WCI  12
HOUGHTON       CLOUDY    20   9  62 W7        29.89S WCI  11
COPPER HARBOR    N/A     20   6  55 N8        29.91F WCI  10
$$

ABBREVIATIONS USED IN REMARKS
   TC - TEMPERATURE IN CELSIUS
  WCI - WIND CHILL INDEX
   HX - HEAT INDEX
  VSB - VISIBILITY





USA.gov is the U.S. government's official web portal to all federal, state and local government web resources and services.